FW3090 Weather Reports


Display with metric or nautical units.
time (UTC)temp
F
wind
direction
speed
MPH
gust
MPH
rain 1hr
in
rain 24hr
in
rain mn
in
humidity
%
barometer
mb
20260506205933 45 0 7.0 12.0 0.00 0.00 0.00 50 1015.8
20260506205645 44 311 7.0 12.0 0.00 0.00 0.00 47 1015.8
20260506204922 45 309 6.0 12.0 0.00 0.00 0.00 48 1015.8
20260506204415 44 306 6.0 12.0 0.00 0.00 0.00 48 1015.8
20260506204126 45 311 7.0 12.0 0.00 0.00 0.00 47 1015.9
20260506203403 45 259 7.0 12.0 0.00 0.00 0.00 47 1015.9
20260506202856 45 284 7.0 14.0 0.00 0.00 0.00 45 1015.8
20260506202351 45 315 6.0 14.0 0.00 0.00 0.00 49 1015.8
20260506201844 45 298 6.0 11.0 0.00 0.00 0.00 49 1015.9
20260506201339 45 306 7.0 13.0 0.00 0.00 0.00 46 1015.9
20260506200832 45 311 7.0 12.0 0.00 0.00 0.00 47 1015.8
20260506200327 45 293 7.0 14.0 0.00 0.00 0.00 46 1015.8
20260506195821 45 304 9.0 17.0 0.00 0.00 0.00 48 1015.8
20260506195314 45 306 10.0 17.0 0.00 0.00 0.00 45 1015.8
20260506194808 45 306 9.0 17.0 0.00 0.00 0.00 46 1015.9
20260506194747 46 292 8.0 12.0 0.00 0.00 0.00 45 1015.8
20260506193757 45 290 9.0 16.0 0.00 0.00 0.00 47 1015.8
20260506193251 45 302 8.0 16.0 0.00 0.00 0.00 45 1015.8
20260506192745 46 306 7.0 12.0 0.00 0.00 0.00 45 1015.8
20260506192239 45 249 8.0 15.0 0.00 0.00 0.00 46 1015.7
20260506191733 45 263 7.0 15.0 0.00 0.00 0.00 46 1015.7
20260506191227 45 314 8.0 17.0 0.00 0.00 0.00 46 1015.8
20260506190722 45 319 8.0 17.0 0.00 0.00 0.00 47 1015.8
20260506190215 45 304 9.0 13.0 0.00 0.00 0.00 46 1015.8
20260506185709 45 300 9.0 13.0 0.00 0.00 0.00 47 1015.8
20260506185202 45 313 8.0 13.0 0.00 0.00 0.00 47 1015.7
20260506184657 45 288 8.0 12.0 0.00 0.00 0.00 47 1015.7
20260506184151 45 286 7.0 13.0 0.00 0.00 0.00 47 1015.6
20260506183645 45 286 6.0 13.0 0.00 0.00 0.00 46 1015.6
20260506183138 46 251 6.0 15.0 0.00 0.00 0.00 48 1015.5
20260506182632 46 293 7.0 15.0 0.00 0.00 0.00 49 1015.5
20260506182127 45 321 8.0 14.0 0.00 0.00 0.00 45 1015.5
20260506181620 45 278 8.0 13.0 0.00 0.00 0.00 47 1015.5
20260506181115 45 306 6.0 13.0 0.00 0.00 0.00 47 1015.4
20260506180835 46 325 5.0 13.0 0.00 0.00 0.00 46 1015.4
20260506175820 46 29 6.0 11.0 0.00 0.00 0.00 49 1015.6
20260506175308 46 289 6.0 11.0 0.00 0.00 0.00 49 1015.5
20260506174545 46 302 5.0 9.0 0.00 0.00 0.00 49 1015.6
20260506174038 45 302 5.0 12.0 0.00 0.00 0.00 49 1015.6
20260506173532 46 321 6.0 13.0 0.00 0.00 0.00 47 1015.5
20260506173027 46 308 6.0 13.0 0.00 0.00 0.00 49 1015.6
20260506172521 46 318 6.0 10.0 0.00 0.00 0.00 48 1015.6
20260506172244 46 305 6.0 10.0 0.00 0.00 0.00 46 1015.6
20260506171508 46 272 6.0 10.0 0.00 0.00 0.00 47 1015.8
20260506171002 45 314 6.0 11.0 0.00 0.00 0.00 47 1015.8
20260506170717 45 294 6.0 15.0 0.00 0.00 0.00 47 1015.7
20260506165950 46 292 5.0 16.0 0.00 0.00 0.00 49 1015.9
20260506165459 46 306 5.0 11.0 0.00 0.00 0.00 47 1015.8
20260506164938 46 275 5.0 11.0 0.00 0.00 0.00 48 1015.8
20260506164432 46 288 6.0 9.0 0.00 0.00 0.00 47 1015.7
20260506163927 46 305 5.0 9.0 0.00 0.00 0.00 47 1015.7
20260506163420 45 310 4.0 10.0 0.00 0.00 0.00 48 1015.8
20260506162915 45 314 7.0 14.0 0.00 0.00 0.00 49 1015.8
20260506162409 45 304 7.0 14.0 0.00 0.00 0.00 49 1015.8
20260506161903 46 277 6.0 13.0 0.00 0.00 0.00 46 1015.7
20260506161356 46 286 6.0 11.0 0.00 0.00 0.00 48 1015.7
20260506160851 46 258 6.0 10.0 0.00 0.00 0.00 48 1015.7
20260506160344 45 298 6.0 11.0 0.00 0.00 0.00 47 1015.7
20260506155840 45 273 6.0 11.0 0.00 0.00 0.00 48 1015.6
20260506155332 45 277 6.0 11.0 0.00 0.00 0.00 49 1015.8
20260506154832 45 309 6.0 12.0 0.00 0.00 0.00 48 1015.6
20260506154332 45 321 5.0 13.0 0.00 0.00 0.00 49 1015.6
20260506153832 46 292 4.0 13.0 0.00 0.00 0.00 48 1015.5
20260506153332 46 322 4.0 11.0 0.00 0.00 0.00 48 1015.6
20260506153053 45 64 4.0 10.0 0.00 0.00 0.00 49 1015.6
20260506152333 45 338 4.0 13.0 0.00 0.00 0.00 48 1015.8
20260506151833 44 271 4.0 13.0 0.00 0.00 0.00 50 1015.8
20260506151333 43 302 5.0 11.0 0.00 0.00 0.00 51 1015.7
20260506150832 43 322 5.0 11.0 0.00 0.00 0.00 53 1015.9
20260506150331 43 293 5.0 11.0 0.00 0.00 0.00 53 1016.0
20260506145831 42 298 4.0 11.0 0.00 0.00 0.00 53 1016.0
20260506145331 42 355 3.0 11.0 0.00 0.00 0.00 52 1016.1
20260506144829 42 317 4.0 11.0 0.00 0.00 0.00 52 1016.1
20260506144329 42 301 6.0 13.0 0.00 0.00 0.00 51 1016.1
20260506143829 42 267 7.0 13.0 0.00 0.00 0.00 51 1016.1
20260506143324 43 276 6.0 11.0 0.00 0.00 0.00 51 1015.9
20260506142824 43 281 5.0 10.0 0.00 0.00 0.00 52 1015.8
20260506142324 43 317 3.0 10.0 0.00 0.00 0.00 53 1015.7
20260506141824 43 302 3.0 9.0 0.00 0.00 0.00 53 1015.7
20260506141325 43 355 3.0 10.0 0.00 0.00 0.00 53 1015.7
20260506141047 43 344 3.0 10.0 0.00 0.00 0.00 53 1015.7
20260506140325 42 338 2.0 7.0 0.00 0.00 0.00 54 1015.7
20260506135825 42 331 3.0 7.0 0.00 0.00 0.00 53 1015.6
20260506135324 42 301 2.0 5.0 0.00 0.00 0.00 55 1015.6
20260506134820 42 327 3.0 9.0 0.00 0.00 0.00 57 1015.4
20260506134321 42 355 3.0 12.0 0.00 0.00 0.00 57 1015.4
20260506133821 41 324 3.0 12.0 0.00 0.00 0.00 56 1015.4
20260506133537 41 14 3.0 6.0 0.00 0.00 0.00 58 1015.4
20260506133046 41 281 3.0 6.0 0.00 0.00 0.00 58 1015.4
20260506132320 40 279 2.0 6.0 0.00 0.00 0.00 58 1015.4
20260506131821 40 32 2.0 6.0 0.00 0.00 0.00 60 1015.3
20260506131320 39 275 2.0 7.0 0.00 0.00 0.00 60 1015.2
20260506130820 39 281 2.0 7.0 0.00 0.00 0.00 61 1015.3
20260506130313 39 328 2.0 7.0 0.00 0.00 0.00 61 1015.0
20260506125808 39 290 2.0 7.0 0.00 0.00 0.00 62 1015.2
20260506125301 38 302 2.0 5.0 0.00 0.00 0.00 63 1015.1
20260506124755 38 302 2.0 7.0 0.00 0.00 0.00 63 1015.1
20260506124249 38 324 1.0 7.0 0.00 0.00 0.00 64 1015.0
20260506123743 38 5 0.0 3.0 0.00 0.00 0.00 65 1015.1
20260506123238 37 291 0.0 2.0 0.00 0.00 0.00 66 1015.1
20260506122731 37 291 0.0 2.0 0.00 0.00 0.00 66 1015.0
20260506122226 37 291 1.0 3.0 0.00 0.00 0.00 67 1015.0
20260506121720 36 291 1.0 5.0 0.00 0.00 0.00 67 1014.7
20260506121212 36 343 1.0 5.0 0.00 0.00 0.00 68 1014.6
20260506120706 35 305 1.0 3.0 0.00 0.00 0.00 70 1014.4
20260506120159 35 306 0.0 3.0 0.00 0.00 0.00 70 1014.5
20260506115920 35 296 0.0 1.0 0.00 0.00 0.00 72 1014.3
20260506115148 35 296 0.0 0.0 0.00 0.00 0.00 72 1014.4
20260506114641 35 296 1.0 3.0 0.00 0.00 0.00 73 1014.5
20260506114136 35 296 1.0 3.0 0.00 0.00 0.00 73 1014.5
20260506113629 35 296 2.0 3.0 0.00 0.00 0.00 73 1014.6
20260506113351 35 296 2.0 3.0 0.00 0.00 0.00 71 1014.5
20260506112617 35 296 1.0 3.0 0.00 0.00 0.00 70 1014.3
20260506112112 35 298 1.0 3.0 0.00 0.00 0.00 71 1014.3
20260506111605 35 308 1.0 3.0 0.00 0.00 0.00 70 1014.2
20260506111316 35 293 1.0 7.0 0.00 0.00 0.00 70 1014.2
20260506110554 35 293 1.0 7.0 0.00 0.00 0.00 70 1014.2
20260506110047 35 284 1.0 4.0 0.00 0.00 0.00 70 1014.0
20260506105542 35 284 0.0 4.0 0.00 0.00 0.00 70 1014.0
20260506105036 35 283 0.0 3.0 0.00 0.00 0.00 71 1013.9
20260506104529 35 283 0.0 3.0 0.00 0.00 0.00 70 1013.7
20260506104023 35 346 0.0 3.0 0.00 0.00 0.00 70 1013.6
20260506103517 36 340 1.0 3.0 0.00 0.00 0.00 69 1013.7
20260506103012 36 355 1.0 3.0 0.00 0.00 0.00 69 1013.6
20260506102725 36 30 1.0 3.0 0.00 0.00 0.00 69 1013.7
20260506101959 36 314 0.0 3.0 0.00 0.00 0.00 69 1013.9
20260506101454 36 312 0.0 2.0 0.00 0.00 0.00 68 1013.8
20260506100948 36 312 0.0 2.0 0.00 0.00 0.00 69 1013.6
20260506100704 36 315 1.0 2.0 0.00 0.00 0.00 68 1013.6
20260506095935 37 300 1.0 5.0 0.00 0.00 0.00 68 1013.8
20260506095430 37 293 1.0 5.0 0.00 0.00 0.00 67 1013.7
20260506094923 37 292 2.0 4.0 0.00 0.00 0.00 67 1013.6
20260506094640 37 299 1.0 4.0 0.00 0.00 0.00 67 1013.5
20260506094132 37 292 1.0 4.0 0.00 0.00 0.00 67 1013.4
20260506093405 37 35 1.0 3.0 0.00 0.00 0.00 66 1013.4
20260506093127 37 337 1.0 3.0 0.00 0.00 0.00 66 1013.3
20260506092354 37 28 1.0 3.0 0.00 0.00 0.00 66 1013.2
20260506091847 37 32 0.0 2.0 0.00 0.00 0.00 66 1013.3
20260506091342 37 296 1.0 4.0 0.00 0.00 0.00 66 1013.3
20260506090836 38 295 1.0 4.0 0.00 0.00 0.00 66 1013.3
20260506090329 38 300 1.0 3.0 0.00 0.00 0.00 66 1013.3
20260506085823 38 296 1.0 3.0 0.00 0.00 0.00 65 1013.2
20260506085318 38 296 1.0 3.0 0.00 0.00 0.00 64 1013.3
20260506084812 38 299 1.0 3.0 0.00 0.00 0.00 65 1013.2
20260506084305 38 297 1.0 3.0 0.00 0.00 0.00 64 1013.1
20260506083759 38 311 1.0 3.0 0.00 0.00 0.00 64 1013.0
20260506083253 38 309 1.0 2.0 0.00 0.00 0.00 64 1013.0
20260506082747 38 309 1.0 4.0 0.00 0.00 0.00 65 1013.0
20260506082242 39 17 0.0 4.0 0.00 0.00 0.00 63 1012.9
20260506081735 39 321 1.0 4.0 0.00 0.00 0.00 62 1012.9
20260506081230 39 321 0.0 4.0 0.00 0.00 0.00 61 1012.9
20260506080723 39 338 0.0 2.0 0.00 0.00 0.00 62 1013.0
20260506080218 39 340 0.0 1.0 0.00 0.00 0.00 61 1013.0
20260506073141 40 344 0.0 3.0 0.00 0.00 0.00 61 1012.8
20260506072900 40 327 0.0 1.0 0.00 0.00 0.00 61 1012.7
20260506072129 40 327 0.0 2.0 0.00 0.00 0.00 61 1012.6
20260506071624 40 327 0.0 2.0 0.00 0.00 0.00 59 1012.5
20260506071118 40 327 0.0 2.0 0.00 0.00 0.00 60 1012.3
20260506070611 40 327 1.0 6.0 0.00 0.00 0.00 59 1012.2
20260506070106 40 309 1.0 6.0 0.00 0.00 0.00 60 1012.2
20260506062046 41 5 1.0 2.0 0.00 0.00 0.00 60 1012.0
20260506061545 41 0 1.0 4.0 0.00 0.00 0.00 60 1012.0
20260506061046 41 0 1.0 4.0 0.00 0.00 0.00 61 1012.1
20260506060545 41 321 1.0 3.0 0.00 0.00 0.00 59 1012.3
20260506051044 41 305 2.0 7.0 0.00 0.00 0.00 63 1011.6
20260506050543 41 294 2.0 5.0 0.00 0.00 0.00 63 1011.6
20260506045031 41 297 1.0 3.0 0.00 0.00 0.00 62 1011.5
20260506044743 41 300 1.0 4.0 0.00 0.00 0.00 62 1011.4
20260506044020 42 291 1.0 4.0 0.00 0.00 0.00 60 1011.5
20260506043514 42 293 0.0 3.0 0.00 0.00 0.00 61 1011.4
20260506043008 42 325 0.0 2.0 0.00 0.00 0.00 61 1011.6
20260506042501 42 326 0.0 0.0 0.00 0.00 0.00 61 1011.5
20260506041957 42 326 0.0 0.0 0.00 0.00 0.00 60 1011.5
20260506041449 42 326 0.0 0.0 0.00 0.00 0.00 60 1011.4
20260506041206 43 326 0.0 0.0 0.00 0.00 0.00 60 1011.4
20260506040437 43 326 0.0 0.0 0.00 0.00 0.00 60 1011.4
20260506035932 43 326 0.0 1.0 0.00 0.00 0.00 60 1011.3
20260506035426 43 326 0.0 1.0 0.00 0.00 0.00 60 1011.3
20260506034920 43 326 0.0 2.0 0.00 0.00 0.00 61 1011.3
20260506034633 43 326 0.0 2.0 0.00 0.00 0.00 60 1011.3
20260506033907 43 304 0.0 2.0 0.00 0.00 0.00 62 1011.2
20260506033401 43 290 1.0 3.0 0.00 0.00 0.00 62 1011.2
20260506032856 43 290 1.0 4.0 0.00 0.00 0.00 62 1011.3
20260506032349 44 290 1.0 4.0 0.00 0.00 0.00 59 1011.2
20260506032328 44 290 0.0 3.0 0.00 0.00 0.00 61 1011.2
20260506031338 44 290 0.0 1.0 0.00 0.00 0.00 60 1011.3
20260506030831 45 290 0.0 1.0 0.00 0.00 0.00 61 1011.4
20260506030326 45 290 1.0 3.0 0.00 0.00 0.00 57 1011.3
20260506025820 46 290 2.0 4.0 0.00 0.00 0.00 52 1011.2
20260506025313 47 290 2.0 4.0 0.00 0.00 0.00 51 1011.1
20260506024813 47 290 3.0 4.0 0.00 0.00 0.00 49 1011.1
20260506024314 47 296 3.0 5.0 0.00 0.00 0.00 47 1011.1
20260506024032 47 300 3.0 5.0 0.00 0.00 0.00 47 1011.0
20260506023314 47 295 3.0 5.0 0.00 0.00 0.00 48 1011.0
20260506022813 48 295 3.0 6.0 0.00 0.00 0.00 46 1011.1
20260506022313 47 294 2.0 6.0 0.00 0.00 0.00 47 1010.9
20260506021813 47 284 2.0 4.0 0.00 0.00 0.00 48 1010.9
20260506021312 47 291 2.0 4.0 0.00 0.00 0.00 50 1010.9
20260506021034 47 290 1.0 3.0 0.00 0.00 0.00 52 1010.8
20260506020308 47 290 0.0 3.0 0.00 0.00 0.00 53 1010.7
20260506015806 47 290 0.0 3.0 0.00 0.00 0.00 51 1010.7
20260506015306 47 290 0.0 3.0 0.00 0.00 0.00 53 1010.6
20260506015029 47 290 0.0 3.0 0.00 0.00 0.00 50 1010.5
20260506014302 48 291 1.0 3.0 0.00 0.00 0.00 52 1010.5
20260506013800 48 290 2.0 3.0 0.00 0.00 0.00 49 1010.4
20260506013300 48 291 2.0 5.0 0.00 0.00 0.00 44 1010.4
20260506012755 48 288 2.0 5.0 0.00 0.00 0.00 44 1010.3
20260506012255 48 295 2.0 7.0 0.00 0.00 0.00 48 1010.1
20260506012248 48 292 2.0 7.0 0.00 0.00 0.00 44 1010.0
20260506011255 48 293 1.0 4.0 0.00 0.00 0.00 45 1010.0
20260506010756 48 293 2.0 4.0 0.00 0.00 0.00 47 1010.0
20260506010256 48 292 1.0 4.0 0.00 0.00 0.00 46 1009.9
20260506005756 48 284 1.0 4.0 0.00 0.00 0.00 45 1009.9
20260506005257 48 284 2.0 4.0 0.00 0.00 0.00 45 1009.9
20260506004757 49 290 2.0 7.0 0.00 0.00 0.00 46 1009.8
20260506004251 49 311 3.0 9.0 0.00 0.00 0.00 44 1009.9
20260506003751 49 285 4.0 9.0 0.00 0.00 0.00 43 1009.8
20260506003516 50 293 4.0 9.0 0.00 0.00 0.00 42 1009.7
20260506002751 50 297 5.0 11.0 0.00 0.00 0.00 42 1009.7
20260506002252 50 331 6.0 11.0 0.00 0.00 0.00 41 1009.8
20260506001751 50 308 6.0 11.0 0.00 0.00 0.00 41 1009.8
20260506001251 50 308 7.0 14.0 0.00 0.00 0.00 41 1009.8
20260506000751 50 293 7.0 14.0 0.00 0.00 0.00 39 1009.7
20260506000251 51 304 6.0 11.0 0.00 0.00 0.00 40 1009.7
20260506000009 51 311 6.0 11.0 0.00 0.00 0.00 39 1009.7
20260505235730 51 301 6.0 11.0 0.00 0.00 0.00 42 1009.6
20260505234732 51 282 6.0 11.0 0.00 0.00 0.00 38 1009.6
20260505234226 51 302 7.0 12.0 0.00 0.00 0.00 39 1009.6
20260505233720 51 297 8.0 12.0 0.00 0.00 0.00 37 1009.6
20260505233215 51 296 7.0 12.0 0.00 0.00 0.00 37 1009.7
20260505232935 51 306 6.0 12.0 0.00 0.00 0.00 38 1009.6
20260505232203 51 294 6.0 12.0 0.00 0.00 0.00 37 1009.7
20260505231656 51 290 6.0 13.0 0.00 0.00 0.00 38 1009.6
20260505231150 51 282 7.0 13.0 0.00 0.00 0.00 36 1009.6
20260505230645 52 290 7.0 13.0 0.00 0.00 0.00 37 1009.6
20260505230358 52 311 7.0 12.0 0.00 0.00 0.00 36 1009.7
20260505225633 52 300 8.0 14.0 0.00 0.00 0.00 37 1009.7
20260505225127 52 301 8.0 14.0 0.00 0.00 0.00 34 1009.8
20260505224848 52 290 5.0 12.0 0.00 0.00 0.00 34 1009.7
20260505224116 52 309 5.0 10.0 0.00 0.00 0.00 36 1009.7
20260505223609 52 305 7.0 16.0 0.00 0.00 0.00 34 1009.7
20260505223103 52 314 7.0 16.0 0.00 0.00 0.00 35 1009.7
20260505222557 52 315 4.0 12.0 0.00 0.00 0.00 35 1009.7
20260505222050 52 313 5.0 10.0 0.00 0.00 0.00 35 1009.7
20260505221545 52 300 6.0 14.0 0.00 0.00 0.00 36 1009.6
20260505221039 53 321 6.0 14.0 0.00 0.00 0.00 34 1009.6
20260505221016 53 304 6.0 10.0 0.00 0.00 0.00 35 1009.6
20260505220026 53 290 6.0 12.0 0.00 0.00 0.00 35 1009.5
20260505215520 53 306 5.0 14.0 0.00 0.00 0.00 34 1009.6
20260505215235 53 294 6.0 14.0 0.00 0.00 0.00 35 1009.6
20260505214956 52 300 7.0 14.0 0.00 0.00 0.00 34 1009.6
20260505214002 52 300 7.0 13.0 0.00 0.00 0.00 34 1009.7
20260505213456 53 284 6.0 13.0 0.00 0.00 0.00 36 1009.6
20260505212950 53 303 5.0 11.0 0.00 0.00 0.00 35 1009.6
20260505212444 53 296 4.0 10.0 0.00 0.00 0.00 34 1009.7
20260505211938 53 30 3.0 10.0 0.00 0.00 0.00 34 1009.6
20260505211655 53 318 3.0 12.0 0.00 0.00 0.00 34 1009.7
20260505210927 54 24 5.0 15.0 0.00 0.00 0.00 34 1009.7
20260505210420 53 302 6.0 15.0 0.00 0.00 0.00 34 1009.6